Weather History for Denver, CO

Change the Weather History Date:

Tuesday, October 23, 2012

  Actual Average Record
Temperature  
Mean Temperature 61 °F 48 °F  
Max Temperature 77 °F 62 °F 87 °F (1973)
Min Temperature 45 °F 34 °F 16 °F (1873)
Degree Days  
Heating Degree Days 4 17  
Month to date heating degree days 314 293  
Since 1 July heating degree days 383 434  
Cooling Degree Days 0 0  
Month to date cooling degree days 1 1  
Year to date cooling degree days 1236 765  
Growing Degree Days 12 (Base 50)    
Moisture  
Dew Point 24 °F    
Average Humidity 32    
Maximum Humidity 53    
Minimum Humidity 10    
Precipitation  
Precipitation 0.00 in 0.04 in 1.81 in (1914)
Month to date precipitation 0.55 0.81  
Year to date precipitation 8.90 13.13  
Snow  
Snow 0.00 in - - ()
Month to date snowfall 0.4  
Since 1 July snowfall 0.4  
Since 1 September snowfall 0.4  
Snow Depth 0.00 in    
Sea Level Pressure  
Sea Level Pressure 29.62 in    
Wind  
Wind Speed 10 mph (West)    
Max Wind Speed 26 mph    
Max Gust Speed 31 mph    
Visibility 10 miles    
Events      
T = Trace of Precipitation, MM = Missing Value Source: NWS Daily Summary

Daily Weather History Graph

Daily Weather History Graph

Search for Another Location

Airport:

Trip Planner

Search our weather history database for the weather conditions in past years. The results will help you decide how hot, cold, wet, or windy it might be!

Date:

Astronomy

Oct. 23, 2012 Rise Set
Actual Time 7:18 AM MDT 6:07 PM MDT
Civil Twilight 6:50 AM MDT 6:34 PM MDT
Nautical Twilight 6:18 AM MDT 7:06 PM MDT
Astronomical Twilight 5:47 AM MDT 7:37 PM MDT
Moon 2:51 PM MDT (10/23) 1:13 AM MDT (10/23)
Length of Visible Light 11h 44m
Length of Day
10h 49m
Waxing Gibbous, 67% of the Moon is Illuminated
Oct 23
Waxing Gibbous
Oct 29
Full
Nov 6
Last Quarter
Nov 13
New
Nov 20
First Quarter

Hourly Weather History & Observations

Time (MDT) Temp. Windchill Dew Point Humidity Pressure Visibility Wind Dir Wind Speed Gust Speed Precip Events Conditions
12:53 AM 46.9 °F - 30.0 °F 52% 29.61 in 10.0 mi Calm Calm - N/A   Partly Cloudy
1:53 AM 48.9 °F - 28.9 °F 46% 29.59 in 10.0 mi SW 5.8 mph - N/A   Partly Cloudy
2:53 AM 55.0 °F - 24.1 °F 30% 29.55 in 10.0 mi SW 5.8 mph - N/A   Partly Cloudy
3:53 AM 48.9 °F - 23.0 °F 36% 29.57 in 10.0 mi SW 8.1 mph - N/A   Partly Cloudy
4:53 AM 55.0 °F - 21.9 °F 28% 29.54 in 10.0 mi SSW 16.1 mph - N/A   Partly Cloudy
5:53 AM 53.1 °F - 21.0 °F 29% 29.57 in 10.0 mi South 9.2 mph - N/A   Partly Cloudy
6:53 AM 48.9 °F - 21.9 °F 35% 29.59 in 10.0 mi South 10.4 mph - N/A   Partly Cloudy
7:53 AM 54.0 °F - 24.1 °F 31% 29.58 in 10.0 mi South 17.3 mph - N/A   Mostly Cloudy
8:53 AM 61.0 °F - 25.0 °F 25% 29.60 in 10.0 mi South 16.1 mph 25.3 mph N/A   Mostly Cloudy
9:18 AM 57.2 °F - 26.6 °F 31% 29.76 in 10.0 mi West 9.2 mph - N/A   Mostly Cloudy
9:53 AM 64.9 °F - 27.0 °F 24% 29.59 in 10.0 mi WSW 8.1 mph - N/A   Scattered Clouds
10:53 AM 71.6 °F - 24.8 °F 17% 29.76 in 10.0 mi SW 12.7 mph - N/A   Scattered Clouds
11:53 AM 73.0 °F - 19.0 °F 13% 29.58 in 10.0 mi SW 9.2 mph - N/A   Scattered Clouds
12:53 PM 75.0 °F - 17.1 °F 11% 29.55 in 10.0 mi NNW 4.6 mph - N/A   Scattered Clouds
1:53 PM 77.0 °F - 18.0 °F 11% 29.52 in 10.0 mi NNE 6.9 mph - N/A   Scattered Clouds
2:53 PM 73.0 °F - 19.0 °F 13% 29.51 in 10.0 mi NE 10.4 mph - N/A   Mostly Cloudy
3:53 PM 71.1 °F - 21.9 °F 16% 29.53 in 10.0 mi NE 17.3 mph 23.0 mph N/A   Mostly Cloudy
4:53 PM 72.0 °F - 23.0 °F 16% 29.52 in 10.0 mi ENE 11.5 mph - N/A   Mostly Cloudy
5:53 PM 66.0 °F - 21.9 °F 19% 29.55 in 10.0 mi ENE 8.1 mph - N/A   Mostly Cloudy
6:53 PM 61.0 °F - 21.0 °F 21% 29.60 in 10.0 mi Calm Calm - N/A   Mostly Cloudy
7:53 PM 62.1 °F - 19.0 °F 19% 29.61 in 10.0 mi East 3.5 mph - N/A   Mostly Cloudy
8:53 PM 55.0 °F - 27.0 °F 34% 29.65 in 10.0 mi North 16.1 mph - N/A   Mostly Cloudy
9:17 PM 55.4 °F - 28.4 °F 36% 29.83 in 10.0 mi North 24.2 mph 29.9 mph N/A   Mostly Cloudy
9:32 PM 53.6 °F - 28.4 °F 38% 29.83 in 10.0 mi NNE 23.0 mph 31.1 mph N/A   Mostly Cloudy
9:53 PM 51.1 °F - 30.0 °F 44% 29.70 in 10.0 mi North 18.4 mph - N/A   Mostly Cloudy
10:53 PM 48.0 °F - 30.0 °F 50% 29.74 in 10.0 mi North 13.8 mph - N/A   Mostly Cloudy
11:53 PM 46.4 °F 41.1 °F 28.4 °F 50% 29.93 in 10.0 mi NW 11.5 mph - N/A   Mostly Cloudy